Content
SEND FEEDBACK

Daily
Averages
Monthly
Summary
United States of America

ANN ARBOR, MICHIGAN


Home > North America > United States > Michigan
Elevation: 759 feet     Latitude: 42 17N     Longitude: 083 43W

WEATHER
 
SELECT A DAY
Number of Records: 203,415;   Date Range: 1/1/95 - 7/29/14
 
SHARE

PRINT THIS DATA

[ ← Previous Day ]
WEATHER ALMANAC - JANUARY 16, 2013
[ Next Day → ]
[ °C ]   °F
Weather ElementAverageHighLow
Temperature28.9 °F37 °F (1:53 pm)17.1 °F (3:53 am)
Dewpoint18.3 °F26.1 °F (11:53 pm)14 °F (1:53 am)
Humidity67.7 %92 % (2:53 am)39 % (3:53 pm)
Barometer29.96 in30.12 in (1:53 am)29.84 in (3:53 pm)
Wind Speed9.4 mph19.6 mph (3:53 pm)
Wind Gust27.6 mph (3:53 pm)
Weather ElementAverage
Visibility9.7 mi
Wind DirectionS (179.6 °)

Weather ElementTotal
Precipitation---
Heating Degree Days38 (Base 65)
Averaged from 23 records on January 16, 2013
WEATHER CONDITIONS BREAKOUT
WIND DIRECTION BREAKOUT
WEATHER BY HOUR - JANUARY 16, 2013
[ °C ]   °F
Local TimeTemperatureDewpointHumidityBarometerVisibilityWind DirectionWind SpeedGust SpeedPrecipitationEventsConditions
1:53 AM19.0 °F14.0 °F81 %30.12 in10.0 miCalmClear
2:53 AM19.9 °F18.0 °F92 %30.09 in10.0 miCalmClear
3:53 AM17.1 °F14.0 °F88 %30.08 in7.0 miCalmClear
4:53 AM17.1 °F14.0 °F88 %30.06 in9.0 miCalmOvercast
5:53 AM21.0 °F18.0 °F88 %30.03 in10.0 miCalmOvercast
6:53 AM19.9 °F18.0 °F92 %30.01 in9.0 miCalmOvercast
7:53 AM21.0 °F18.0 °F88 %29.99 in10.0 miWNW (300°)3.5 mphOvercast
8:53 AM19.0 °F17.1 °F92 %29.99 in9.0 miCalmPartly Cloudy
9:53 AM26.1 °F21.0 °F81 %29.97 in10.0 miWSW (250°)4.6 mphClear
10:53 AM30.0 °F21.9 °F72 %29.97 in10.0 miWSW (250°)13.8 mphClear
11:53 AM33.1 °F18.0 °F54 %29.93 in10.0 miWest (260°)13.8 mphClear
12:53 PM36.0 °F16.0 °F44 %29.87 in10.0 miWSW (240°)11.5 mphClear
1:53 PM37.0 °F15.1 °F41 %29.85 in10.0 miWSW (240°)13.8 mph20.7 mphClear
3:53 PM37.0 °F14.0 °F39 %29.84 in10.0 miWSW (250°)19.6 mph27.6 mphClear
4:53 PM36.0 °F15.1 °F43 %29.86 in10.0 miWSW (240°)15.0 mphOvercast
5:53 PM36.0 °F16.0 °F44 %29.86 in10.0 miWSW (250°)13.8 mph25.3 mphOvercast
6:53 PM35.1 °F17.1 °F48 %29.89 in10.0 miWSW (250°)17.3 mphOvercast
7:53 PM34.0 °F18.0 °F52 %29.91 in10.0 miWest (260°)19.6 mph24.2 mphOvercast
8:53 PM34.0 °F21.0 °F59 %29.93 in10.0 miWest (260°)17.3 mph24.2 mphOvercast
9:53 PM34.0 °F23.0 °F64 %29.94 in10.0 miWest (270°)13.8 mph25.3 mphOvercast
10:05 PM33.8 °F23.0 °F65 %29.92 in10.0 miWest (260°)13.8 mphOvercast
10:53 PM34.0 °F25.0 °F70 %29.94 in10.0 miWest (270°)11.5 mph20.7 mphOvercast
11:53 PM34.0 °F26.1 °F73 %29.97 in10.0 miWest (280°)12.7 mphOvercast
Hourly data recorded from KARB, located miles away from Ann Arbor, Michigan







STORIES FROM OUR PARTNERS